IW0DNR Weather Reports


Display with metric or nautical units.
time (UTC)temp
F
wind
direction
speed
MPH
gust
MPH
rain 1hr
in
rain 24hr
in
rain mn
in
humidity
%
barometer
mb
20260507131543 71 209 2.0 7.0 0.00 0.01 0.00 64 1011.1
20260507130040 71 162 2.0 8.0 0.00 0.01 0.00 62 1011.1
20260507124539 70 212 4.0 7.0 0.00 0.01 0.00 62 1011.3
20260507123037 71 216 3.0 7.0 0.00 0.01 0.00 61 1011.5
20260507121536 71 244 4.0 7.0 0.00 0.01 0.00 61 1011.6
20260507120034 71 221 2.0 8.0 0.00 0.01 0.00 60 1011.8
20260507114535 73 246 4.0 7.0 0.00 0.01 0.00 57 1011.8
20260507113029 71 265 4.0 9.0 0.00 0.01 0.00 60 1011.9
20260507111628 70 188 3.0 7.0 0.00 0.01 0.00 63 1012.0
20260507110027 69 219 3.0 7.0 0.00 0.01 0.00 63 1012.2
20260507104527 70 254 2.0 8.0 0.00 0.01 0.00 63 1012.4
20260507103025 68 219 2.0 9.0 0.00 0.01 0.00 65 1012.7
20260507101527 68 205 5.0 10.0 0.00 0.01 0.00 66 1012.9
20260507100033 68 252 3.0 12.0 0.00 0.01 0.00 67 1012.8
20260507094535 71 200 4.0 10.0 0.00 0.01 0.00 61 1012.6
20260507093027 71 137 2.0 5.0 0.00 0.01 0.00 58 1012.4
20260507091526 70 288 1.0 4.0 0.00 0.01 0.00 61 1012.3
20260507090019 69 109 0.0 4.0 0.00 0.01 0.00 63 1012.2
20260507084522 69 210 2.0 4.0 0.00 0.01 0.00 63 1012.6
20260507083012 69 305 0.0 3.0 0.00 0.01 0.00 63 1012.7
20260507081518 67 138 1.0 4.0 0.00 0.01 0.00 67 1012.6
20260507080007 66 248 1.0 4.0 0.00 0.01 0.00 68 1012.6
20260507074507 66 313 1.0 6.0 0.00 0.01 0.00 68 1012.9
20260507073007 66 205 0.0 5.0 0.00 0.01 0.00 67 1013.0
20260507071502 66 278 0.0 4.0 0.00 0.01 0.00 69 1012.8
20260507064555 63 22 2.0 6.0 0.00 0.01 0.00 73 1012.6
20260507063054 63 10 3.0 6.0 0.00 0.01 0.00 75 1012.3
20260507061549 62 26 1.0 4.0 0.00 0.01 0.00 77 1012.5
20260507060056 61 351 2.0 4.0 0.00 0.01 0.00 78 1012.6
20260507054549 60 351 1.0 5.0 0.00 0.01 0.00 79 1012.7
20260507053051 59 34 1.0 4.0 0.00 0.01 0.00 80 1012.7
20260507051542 59 15 0.0 3.0 0.00 0.01 0.00 80 1012.7
20260507050042 59 360 0.0 3.0 0.00 0.01 0.00 80 1012.6
20260507044554 59 360 1.0 4.0 0.00 0.01 0.00 81 1012.5
20260507043040 59 31 1.0 6.0 0.00 0.01 0.00 81 1012.3
20260507041539 59 12 2.0 6.0 0.00 0.01 0.00 82 1012.3
20260507040039 59 355 1.0 6.0 0.00 0.01 0.00 81 1012.1
20260507034541 59 26 1.0 6.0 0.00 0.01 0.00 81 1012.1
20260507033037 59 348 2.0 5.0 0.00 0.01 0.00 81 1012.1
20260507031537 59 24 2.0 5.0 0.00 0.01 0.00 80 1012.0
20260507030035 59 5 0.0 3.0 0.00 0.01 0.00 81 1012.0
20260507024540 59 52 0.0 2.0 0.00 0.01 0.00 80 1012.1
20260507023033 59 33 1.0 3.0 0.00 0.01 0.00 80 1012.3
20260507021532 59 63 0.0 3.0 0.00 0.01 0.00 80 1012.3
20260507020042 59 72 0.0 2.0 0.00 0.01 0.00 80 1012.4
20260507014534 59 70 0.0 2.0 0.00 0.01 0.00 82 1012.4
20260507013031 59 71 0.0 2.0 0.00 0.01 0.00 84 1012.5
20260507011528 59 71 0.0 0.0 0.00 0.01 0.00 85 1012.5
20260507010029 59 71 0.0 2.0 0.00 0.01 0.00 86 1012.4
20260507004531 59 360 0.0 1.0 0.00 0.01 0.00 86 1012.5
20260507003029 59 72 0.0 3.0 0.00 0.01 0.00 86 1012.4
20260507001534 59 360 1.0 3.0 0.00 0.01 0.00 86 1012.4
20260507000024 59 360 0.0 2.0 0.00 0.01 0.00 86 1012.5
20260506234522 60 360 1.0 2.0 0.00 0.01 0.00 86 1012.6
20260506233019 60 360 0.0 0.0 0.00 0.01 0.00 86 1012.8
20260506231517 60 360 0.0 1.0 0.00 0.01 0.00 85 1013.1
20260506230016 60 360 0.0 1.0 0.00 0.01 0.00 85 1013.2
20260506224515 60 117 0.0 0.0 0.00 0.01 0.00 85 1013.3
20260506223012 60 360 0.0 2.0 0.00 0.01 0.00 85 1013.5
20260506221512 60 360 0.0 3.0 0.00 0.01 0.00 85 1013.5
20260506220009 60 360 0.0 2.0 0.00 0.01 0.00 86 1013.6
20260506214508 60 360 0.0 1.0 0.00 0.01 0.01 85 1013.6
20260506213011 60 360 0.0 1.0 0.00 0.01 0.01 85 1013.5
20260506211507 60 360 1.0 2.0 0.01 0.01 0.01 85 1013.4
20260506210006 60 360 0.0 1.0 0.01 0.01 0.01 85 1013.5
20260506204506 60 360 0.0 2.0 0.01 0.01 0.01 85 1013.5
20260506203005 61 360 0.0 0.0 0.01 0.01 0.01 84 1013.8
20260506201507 62 360 0.0 2.0 0.00 0.00 0.00 82 1013.9
20260506200003 62 360 0.0 1.0 0.00 0.00 0.00 79 1014.0
20260506194502 63 360 0.0 2.0 0.00 0.00 0.00 75 1014.2
20260506193003 63 360 1.0 3.0 0.00 0.00 0.00 74 1014.3
20260506191501 63 360 0.0 2.0 0.00 0.00 0.00 73 1014.0
20260506190100 63 360 0.0 1.0 0.00 0.00 0.00 72 1013.5
20260506184600 63 209 0.0 2.0 0.00 0.00 0.00 72 1013.3
20260506183106 63 360 1.0 2.0 0.00 0.00 0.00 71 1013.1
20260506181602 63 360 0.0 0.0 0.00 0.00 0.00 72 1013.0
20260506180100 63 360 0.0 3.0 0.00 0.00 0.00 72 1012.9
20260506174557 63 360 0.0 2.0 0.00 0.00 0.00 73 1012.7
20260506173059 63 360 0.0 4.0 0.00 0.00 0.00 74 1012.7
20260506171559 64 200 1.0 4.0 0.00 0.00 0.00 73 1012.7
20260506170059 64 205 1.0 4.0 0.00 0.00 0.00 72 1012.8
20260506164601 64 360 0.0 4.0 0.00 0.00 0.00 72 1012.7
20260506163104 64 360 0.0 3.0 0.00 0.00 0.00 72 1012.6
20260506161605 64 215 1.0 5.0 0.00 0.00 0.00 72 1012.7
20260506160054 65 211 1.0 3.0 0.00 0.00 0.00 71 1012.8
20260506154610 65 360 2.0 5.0 0.00 0.00 0.00 69 1012.8
20260506153052 65 236 2.0 5.0 0.00 0.00 0.00 70 1013.0
20260506151551 65 360 4.0 8.0 0.00 0.00 0.00 69 1012.9
20260506150053 65 360 2.0 8.0 0.00 0.00 0.00 70 1013.0
20260506144600 66 297 3.0 9.0 0.00 0.00 0.00 68 1013.0
20260506143051 67 360 2.0 12.0 0.00 0.00 0.00 65 1013.0
20260506141551 68 360 3.0 10.0 0.00 0.00 0.00 67 1013.0
20260506140059 67 246 6.0 10.0 0.00 0.00 0.00 67 1012.9
20260506134549 68 235 3.0 9.0 0.00 0.00 0.00 66 1012.8
20260506133053 69 267 4.0 9.0 0.00 0.00 0.00 63 1012.9